Vorticity
6 6 7 7 7 7 6 6 6 6 6 6 6 5 5 5 5 5 5 5 6 6 6 6 6 6 6 6 6 6 6 6 6 6 6 6 6 6 6 7 7 7 7 7 7 7 6 6 6 6 6 6 6 6 6 6 6 6 6 6 6 6 6 6 6 6 6 6 6 7 7 7 7 6 7 7 7 7 6 7 7 6 6 7 7 7 8 8 7 7 6 7 7 7 7 7 6 6 5 6 7 7 6
6 7 7 7 6 6 6 6 6 6 6 5 5 5 5 5 5 5 5 5 5 6 6 6 6 6 6 6 6 6 6 6 6 6 6 6 6 6 6 6 7 7 7 7 7 7 7 6 6 6 6 6 6 6 6 6 6 6 6 6 6 6 6 6 6 6 6 6 6 6 6 6 6 6 6 6 7 7 6 6 6 7 6 6 6 7 7 8 8 7 7 6 6 6 7 7 6 6 5 6 6 6 6
6 6 6 6 6 6 6 6 6 6 5 5 5 5 5 5 5 5 5 5 5 5 6 6 6 6 6 6 6 6 6 6 6 6 6 6 6 6 6 6 6 7 7 7 7 7 7 7 7 6 6 6 6 6 6 6 6 6 6 6 6 7 7 7 6 6 6 6 6 6 6 6 6 6 6 6 6 6 6 6 6 7 7 7 6 6 6 7 7 7 7 6 5 5 6 6 6 6 6 5 5 5 6
6 6 6 6 6 6 6 6 6 6 5 5 5 5 5 5 5 5 5 5 5 5 5 6 6 6 6 6 6 6 6 6 6 6 6 6 6 6 6 6 6 6 7 7 7 7 7 7 7 7 7 6 6 6 6 6 6 6 6 6 6 6 7 7 6 6 6 6 6 6 6 6 6 6 6 6 6 6 6 6 6 6 7 7 7 6 6 6 6 6 6 6 6 5 6 6 6 6 6 6 5 5 5
6 6 6 6 6 6 7 6 6 6 5 5 5 5 5 5 5 5 5 5 5 5 5 5 5 5 6 6 6 6 6 6 6 6 6 6 6 6 6 6 6 6 6 7 7 7 7 7 7 7 7 6 6 6 6 6 6 6 6 6 6 6 6 6 6 6 6 6 6 6 6 6 6 6 6 6 6 7 7 6 6 6 6 7 7 7 6 6 6 6 6 6 6 6 6 6 6 6 6 6 6 5 5
6 6 5 5 6 6 7 7 6 6 5 5 5 5 5 5 5 5 5 5 5 5 5 5 5 5 5 5 6 6 6 6 6 6 6 6 6 6 6 6 6 6 6 6 6 6 6 6 6 6 7 6 6 6 6 6 6 6 6 6 6 6 6 6 6 6 6 6 6 6 6 6 6 6 6 6 6 6 7 7 6 6 5 6 6 6 6 6 6 5 5 6 6 6 6 6 6 6 6 6 6 6 6
6 5 5 5 5 6 6 6 6 6 5 5 5 5 5 5 5 5 5 5 5 5 5 5 5 5 5 5 5 5 5 6 6 6 6 6 6 6 6 6 6 6 6 6 6 6 6 6 6 6 6 6 6 6 6 6 6 6 6 6 6 6 6 6 6 6 6 6 6 6 6 6 7 7 6 6 6 6 6 6 6 6 5 5 5 5 5 5 5 5 5 5 6 6 6 6 6 6 6 6 6 6 6
6 5 5 5 5 5 6 6 6 5 5 5 5 5 5 5 5 5 5 5 5 5 5 5 5 5 5 5 5 5 5 5 5 6 6 6 6 6 6 6 6 6 6 6 6 6 6 6 6 6 6 6 6 6 6 6 6 6 6 6 6 6 6 6 6 6 6 6 6 6 6 6 6 6 6 6 5 5 6 6 6 6 5 5 5 5 5 5 5 5 5 5 5 5 5 6 5 5 5 6 6 6 6
6 5 4 4 4 4 5 5 5 5 5 5 5 5 5 5 5 5 5 5 5 5 5 5 5 5 5 5 5 5 5 5 5 5 5 6 6 6 6 6 6 6 6 6 6 6 6 6 6 6 6 6 6 6 6 6 6 7 7 7 6 6 6 6 6 6 6 6 6 5 5 5 6 6 6 5 5 5 5 5 5 5 5 5 5 5 5 5 4 5 5 5 5 5 5 5 5 5 5 5 6 6 6
6 5 4 4 4 4 4 4 4 4 4 4 5 5 5 5 5 5 5 5 5 5 5 5 5 5 5 5 5 5 5 5 5 5 5 5 6 6 6 6 6 6 6 6 6 6 6 6 6 6 6 6 6 6 6 7 7 7 7 7 7 7 7 7 6 6 6 6 6 5 5 5 5 5 6 5 5 5 5 5 5 5 5 5 5 5 5 5 4 4 5 5 5 5 5 5 5 5 5 5 5 5 6
6 5 5 4 4 4 4 4 4 3 3 4 4 5 5 5 5 5 5 5 5 5 5 5 5 5 5 5 5 5 5 5 5 5 5 5 5 5 6 6 6 6 6 6 6 6 6 6 6 6 6 6 7 7 7 7 7 7 7 7 7 7 7 7 7 7 7 7 6 6 5 5 5 5 5 5 5 5 5 5 5 5 5 5 5 5 5 5 5 5 5 5 5 5 5 5 5 5 5 5 5 5 6
6 6 5 5 5 5 5 4 4 4 4 4 4 4 5 5 5 5 5 5 5 5 5 5 5 5 5 5 5 5 5 5 5 5 5 5 6 6 6 5 5 5 6 6 6 6 6 6 6 6 6 6 7 7 7 7 7 7 7 7 7 7 7 7 7 7 7 7 7 6 6 5 5 5 5 5 5 5 5 5 5 5 5 5 5 5 5 5 5 5 5 5 5 5 5 5 5 5 5 5 5 6 6
6 6 6 5 5 5 5 5 5 5 5 5 5 5 5 5 5 5 5 5 5 5 5 5 5 6 6 6 5 5 5 5 5 5 5 6 6 6 6 6 6 5 5 5 6 6 6 6 6 6 6 6 7 7 7 7 8 8 8 8 8 8 8 7 7 7 7 7 7 7 6 6 5 5 5 5 5 5 5 5 5 5 5 5 5 5 5 5 5 5 5 5 5 5 6 6 6 6 6 6 6 6 6
6 6 6 5 5 5 5 5 5 5 5 5 5 5 5 5 5 5 5 5 5 5 5 5 5 6 6 6 6 6 6 6 6 6 6 6 6 6 6 6 6 6 6 6 6 5 5 5 5 5 6 6 6 7 7 7 8 8 8 9 8 8 8 8 8 8 8 7 7 7 7 6 6 5 5 5 5 5 5 5 5 5 5 5 5 5 5 5 5 5 5 6 6 6 6 6 6 6 6 6 7 7 7
6 6 5 5 5 5 5 5 5 5 5 5 5 5 5 5 5 5 5 5 5 5 5 5 5 5 6 6 6 6 6 6 6 6 6 6 6 6 6 6 6 6 6 6 6 6 6 5 5 5 5 6 6 6 7 7 8 8 9 9 9 9 9 8 8 8 8 8 8 8 8 7 7 6 6 6 6 6 6 6 6 6 6 6 6 6 5 5 6 6 6 6 6 6 6 6 6 6 7 7 7 7 7
6 6 6 5 5 5 5 5 5 5 5 5 5 5 5 6 6 6 5 5 5 5 5 5 5 5 5 5 6 6 6 6 6 6 6 6 6 6 6 6 6 6 6 6 6 6 6 6 5 5 5 6 6 6 6 7 7 8 8 9 9 9 9 9 9 8 8 8 8 8 8 8 8 7 7 6 6 6 6 6 6 6 6 6 6 6 6 6 6 6 6 6 6 6 6 7 7 7 7 8 8 8 7
6 6 6 6 6 5 5 5 5 5 5 5 5 5 5 5 6 6 6 6 5 5 5 5 5 5 5 5 5 5 5 6 6 6 6 6 6 6 6 6 6 6 6 6 6 6 6 6 6 6 6 6 6 6 6 7 7 7 8 8 9 9 9 10 9 9 9 8 8 8 8 8 8 8 8 7 7 6 6 6 6 6 6 6 6 6 6 6 6 6 7 7 7 7 7 7 7 8 8 8 8 8 7
6 6 6 6 6 5 5 5 5 5 5 5 5 5 5 5 5 5 6 6 6 6 6 5 5 5 5 5 5 5 5 5 6 6 6 6 6 6 6 6 6 6 6 6 6 7 7 7 7 6 6 6 6 6 6 6 6 7 7 8 8 9 9 10 10 10 9 9 8 8 8 8 8 8 8 8 7 7 7 7 6 6 6 6 6 6 6 7 7 7 7 7 7 8 8 8 8 9 9 9 8 7 6
5 5 5 5 5 5 5 5 5 6 6 6 6 6 5 5 5 5 6 6 6 6 6 6 6 6 5 5 5 5 5 6 6 6 6 6 6 5 5 5 6 6 6 6 6 7 7 7 7 7 7 7 6 6 6 6 6 6 7 7 8 8 9 9 9 9 10 9 9 9 8 8 8 8 8 8 8 7 7 7 7 7 7 6 6 7 7 7 7 7 8 8 8 8 8 9 9 9 9 9 8 7 5
5 5 5 5 5 5 5 5 5 6 6 6 6 6 6 6 6 6 6 6 6 6 6 6 6 6 6 6 6 6 6 6 6 6 6 6 6 6 6 6 6 6 6 6 6 6 7 7 7 7 7 7 7 6 6 6 6 6 6 6 7 7 8 8 9 9 9 9 9 9 9 8 8 8 8 8 8 8 8 7 7 7 7 7 7 7 7 7 7 8 8 8 8 9 9 9 9 9 9 8 7 6 5
5 5 5 5 5 5 5 5 5 5 6 6 6 6 6 6 6 6 6 6 6 6 6 6 6 6 6 6 6 6 6 6 6 6 6 6 6 6 6 6 6 6 6 6 6 6 6 7 7 7 8 8 7 7 7 6 6 6 6 6 6 7 7 8 8 8 8 9 9 9 9 9 8 8 8 8 8 8 8 8 7 7 7 7 7 7 7 7 8 8 8 8 9 9 9 9 9 9 8 7 6 5 4
5 5 5 5 5 5 5 5 5 5 6 6 6 6 6 6 6 6 6 6 6 6 6 6 6 6 6 6 6 6 6 6 6 6 6 6 6 6 7 7 7 7 6 6 6 6 6 6 7 7 8 8 8 8 7 7 7 6 6 6 6 6 7 7 7 8 8 8 8 9 9 8 8 8 8 8 8 8 8 8 8 8 7 7 7 7 7 8 8 8 8 8 9 9 9 9 9 9 8 6 5 4 3
5 5 5 5 5 5 5 5 6 6 6 6 6 6 6 6 6 6 6 6 6 6 6 6 6 6 6 6 6 6 6 6 6 6 6 6 6 6 7 7 7 7 7 7 7 6 6 6 7 7 7 8 8 8 8 7 7 7 6 6 6 7 7 7 7 7 8 8 8 8 8 8 8 8 8 8 8 8 8 8 8 8 8 7 7 7 7 8 8 8 8 8 9 9 9 9 9 8 7 6 4 4 3
5 5 5 5 5 5 5 5 6 6 6 6 6 6 6 6 6 6 6 6 6 6 6 6 6 6 6 6 6 6 5 6 6 6 6 6 6 6 6 6 7 7 7 7 7 7 7 6 7 7 7 7 7 7 7 7 7 7 7 6 6 7 7 7 7 7 7 8 8 8 8 8 8 8 8 8 8 8 8 8 8 8 8 8 7 7 7 7 8 8 8 8 9 9 9 9 9 8 6 5 4 3 3
5 5 5 5 5 6 5 5 6 6 6 6 6 5 5 6 6 6 6 6 6 6 6 6 6 6 6 6 6 5 5 5 6 6 6 6 6 6 6 6 7 7 7 7 7 7 7 7 7 7 7 7 7 7 7 7 7 7 7 6 6 6 6 7 7 7 7 7 7 7 7 7 7 7 8 8 8 8 8 8 8 8 8 8 8 7 7 7 8 8 8 8 9 9 9 9 8 7 6 5 4 3 3
5 5 6 6 6 6 5 5 5 6 6 5 5 5 5 5 5 6 6 6 6 6 6 6 6 5 6 5 5 5 5 5 5 6 6 6 6 6 6 6 6 7 7 7 7 7 7 7 7 7 7 7 7 7 7 7 7 7 7 7 6 6 6 6 6 7 7 7 7 7 7 7 7 7 7 7 8 8 8 8 8 8 8 8 8 8 7 7 8 8 8 8 9 9 9 9 8 7 6 5 4 3 3
6 6 6 6 6 6 6 6 6 5 5 5 5 5 5 5 5 6 6 6 6 6 6 6 6 6 6 5 5 5 5 6 6 6 6 6 6 6 6 6 6 7 7 7 7 7 7 7 7 7 7 7 7 7 7 7 7 7 7 7 7 6 6 6 6 6 7 7 7 7 7 7 7 7 7 7 7 7 8 8 8 8 8 8 8 8 8 7 8 8 8 8 9 9 9 9 8 7 6 5 4 3 3
6 6 6 6 6 6 6 6 6 5 5 5 5 5 5 5 5 6 6 6 6 6 6 6 6 6 5 6 6 6 6 6 6 6 6 6 7 7 7 7 7 7 7 7 7 7 7 7 7 7 7 7 7 7 7 7 7 7 7 7 7 7 6 6 6 6 7 7 7 7 7 7 7 7 7 7 7 7 7 8 8 8 8 8 8 8 8 8 8 8 8 8 9 9 9 8 8 7 6 5 4 4 3
6 6 6 6 6 6 6 6 6 6 5 5 5 5 5 5 5 5 6 5 6 6 6 6 6 6 6 6 6 6 6 6 6 6 6 7 7 7 7 7 7 7 7 7 7 7 7 7 7 7 7 7 7 7 7 7 7 7 7 7 7 7 7 6 6 6 6 7 7 7 7 7 7 7 7 7 7 7 7 7 8 8 8 8 8 8 8 8 8 8 8 8 8 9 9 8 8 7 6 5 4 4 3
5 5 6 6 6 6 6 6 6 5 5 5 5 5 5 5 5 5 5 5 5 5 6 6 6 6 6 6 6 6 6 6 6 6 7 7 7 7 7 7 7 7 7 7 7 7 7 7 7 7 7 7 7 7 7 7 7 7 7 7 7 7 7 6 6 6 6 6 6 7 7 7 7 7 7 7 7 7 7 7 7 8 8 8 8 8 8 8 8 8 8 8 8 8 8 8 7 7 6 5 4 4 3
5 5 5 6 6 6 6 5 5 5 5 5 5 5 5 5 5 5 5 5 5 5 5 5 6 6 6 6 6 6 6 6 6 6 6 7 7 7 7 7 7 7 7 7 7 7 7 7 7 7 8 7 7 7 8 8 8 8 7 7 7 7 7 6 6 6 6 6 6 6 7 7 7 7 7 7 7 7 7 7 7 8 8 8 8 8 8 8 8 8 8 8 8 8 8 8 7 7 6 5 4 4 3
5 5 6 6 6 6 5 5 5 5 5 5 5 5 5 5 5 5 5 5 5 5 5 5 6 6 6 6 6 6 6 6 6 6 6 6 6 7 7 7 7 7 7 7 7 8 8 8 8 8 8 8 8 8 8 8 8 8 8 8 7 7 7 7 7 6 6 6 6 6 6 7 7 7 7 7 7 7 7 7 7 7 8 8 8 8 8 8 8 8 8 8 8 8 8 8 7 6 6 5 5 4 4
5 5 6 6 6 5 5 5 5 5 5 5 5 5 5 5 5 5 5 5 5 5 5 5 5 5 5 5 5 5 5 6 6 6 6 6 6 6 6 6 7 7 6 7 7 8 8 8 8 8 8 8 8 8 8 8 8 8 8 8 8 8 8 7 7 7 7 7 7 6 6 7 7 7 7 7 7 7 7 7 7 7 8 8 8 8 9 8 8 8 8 8 8 8 8 7 7 6 6 5 5 4 4
6 6 6 6 6 6 6 6 6 5 5 5 5 5 5 5 5 5 5 5 5 5 5 5 5 5 5 5 5 5 5 5 5 5 6 6 6 6 6 6 6 6 6 7 7 7 7 8 8 8 8 8 8 8 9 9 9 9 8 8 8 8 8 8 8 7 7 7 7 7 7 7 7 7 7 7 8 8 8 8 7 7 7 8 8 8 8 8 8 8 8 8 8 8 8 7 7 6 5 5 5 4 4
6 6 6 6 6 6 6 5 5 5 5 5 5 5 5 5 5 5 5 5 5 5 5 5 5 5 5 5 5 5 5 5 5 5 5 5 5 5 6 6 6 6 6 6 6 6 6 7 7 7 7 8 8 8 9 9 9 9 9 9 9 9 9 9 8 8 8 8 7 7 7 7 7 7 7 7 7 8 8 8 8 7 7 7 8 8 8 8 8 8 8 8 8 8 8 7 7 6 6 5 5 4 4
6 6 6 6 6 5 5 5 5 5 5 5 5 4 4 4 4 5 5 5 5 5 5 5 5 5 5 5 5 4 4 5 5 5 5 5 5 5 6 6 5 6 6 6 6 5 6 6 6 6 7 7 7 8 8 9 9 9 9 9 9 9 9 9 9 9 9 8 8 8 7 7 7 7 7 7 7 8 8 8 8 8 8 7 7 7 8 8 8 8 8 8 8 7 7 7 7 6 6 5 5 4 4
6 6 6 6 6 5 5 5 4 4 4 4 4 4 4 4 4 4 5 4 4 4 4 5 5 5 4 4 4 4 4 4 5 5 5 5 5 5 5 5 5 6 6 6 5 5 5 6 6 6 6 6 7 7 7 8 8 8 9 9 9 9 9 9 9 10 10 10 9 9 8 8 7 7 7 7 7 7 7 8 8 8 8 8 7 7 7 8 8 8 8 8 7 7 7 7 7 6 6 5 5 4 4
6 6 6 5 5 5 4 4 4 4 4 4 4 4 4 4 4 4 4 4 4 4 4 4 4 4 4 4 4 4 4 5 5 5 5 5 5 5 5 5 5 5 6 6 5 6 6 6 6 6 6 6 6 6 7 7 7 7 8 8 8 8 9 9 9 10 10 10 10 10 9 9 8 8 7 7 7 7 7 7 8 8 8 8 8 7 7 7 8 8 8 8 7 7 7 7 7 6 6 5 5 5 4
6 5 5 5 4 4 4 4 4 4 4 4 4 4 4 4 4 4 4 4 4 4 4 4 4 4 4 4 4 4 5 5 5 5 5 5 5 5 5 5 5 5 5 5 5 6 6 6 6 6 6 6 6 6 6 6 6 6 7 7 7 8 8 8 8 9 9 10 10 10 10 10 9 9 8 8 7 7 7 7 7 7 8 8 8 8 7 7 7 7 8 8 7 7 7 7 6 6 6 6 5 5 4
5 5 5 4 4 4 4 4 4 4 4 4 4 4 4 4 4 4 4 4 4 4 4 4 4 4 4 4 4 4 4 5 5 5 5 5 5 5 5 5 5 5 5 5 5 5 5 5 5 5 5 6 6 5 5 5 5 5 6 6 6 6 7 7 7 7 8 8 9 9 10 10 10 10 9 9 8 8 7 7 7 7 7 8 8 8 8 8 7 7 8 8 8 7 7 7 6 6 6 6 5 5 5
5 5 4 4 4 4 4 4 4 4 4 4 4 4 4 5 4 4 4 4 4 4 4 4 4 4 4 4 4 4 4 5 5 5 5 5 5 5 5 5 5 5 5 5 5 5 5 5 5 5 5 5 5 5 5 5 5 5 5 5 5 5 6 6 6 6 6 6 7 8 8 9 10 10 10 10 9 9 8 8 7 7 7 7 8 8 8 8 8 8 8 8 8 7 7 7 6 6 6 6 5 5 5
5 5 5 4 4 4 4 4 4 4 5 5 5 5 4 4 4 4 4 4 4 4 4 4 4 4 4 4 4 5 4 5 5 5 5 5 5 5 5 5 5 6 6 6 6 6 6 5 5 5 6 5 5 5 5 5 5 5 5 5 5 5 5 5 5 5 6 6 6 6 7 7 8 9 10 10 10 10 9 9 8 8 7 7 7 8 8 8 8 8 8 8 8 8 7 7 6 6 6 5 5 5 5
5 5 5 5 4 4 4 4 4 5 5 5 4 4 4 4 4 4 4 4 4 4 4 4 4 4 4 5 5 5 5 5 5 5 5 5 5 6 6 6 6 6 6 6 6 6 6 6 6 6 6 6 6 6 6 6 6 6 6 5 5 5 5 6 6 6 6 6 6 6 6 6 7 8 9 9 10 10 10 10 9 9 8 8 8 8 8 8 8 8 8 8 8 8 8 7 7 6 6 5 5 5 5
5 5 5 5 5 4 5 5 5 5 5 4 4 4 4 4 4 4 4 4 4 4 4 5 5 5 5 5 5 5 6 6 6 6 6 6 6 6 6 6 6 6 6 6 6 6 6 6 7 7 7 7 7 7 7 7 7 7 7 7 7 7 7 7 7 7 7 7 7 7 6 7 7 7 8 8 9 10 10 10 10 10 9 8 8 8 8 8 8 8 8 8 8 8 8 8 7 7 6 6 5 5 5
5 5 5 5 5 5 5 5 4 4 4 4 4 4 4 4 4 4 4 4 4 5 5 5 5 5 6 6 6 6 6 6 7 7 7 6 6 7 7 7 7 7 7 7 7 7 7 7 7 8 8 8 8 8 8 9 9 9 9 9 9 9 9 9 9 8 8 8 8 8 8 8 8 8 8 8 9 9 10 10 11 10 10 9 9 8 8 8 8 8 8 8 8 8 8 8 8 7 7 6 6 5 5
5 5 5 5 5 5 4 4 4 4 4 4 4 4 4 4 4 4 4 4 5 5 5 6 6 6 7 7 7 7 7 7 7 7 7 7 7 7 7 7 7 7 7 7 7 8 8 8 8 9 9 9 9 9 9 9 10 10 10 10 10 10 10 10 9 9 9 8 8 8 8 8 8 8 8 8 8 8 9 9 10 11 11 10 10 9 9 8 8 8 8 8 8 8 8 8 8 8 7 7 7 6 5
5 4 4 4 4 4 4 4 4 4 4 3 3 3 4 4 4 4 4 5 5 6 6 6 7 7 7 8 8 8 7 7 7 8 8 8 8 8 8 7 7 8 8 8 8 8 8 9 9 9 9 9 9 9 9 9 9 10 10 10 10 9 9 9 8 8 7 7 7 7 7 7 7 7 6 6 6 7 7 8 8 9 10 11 11 10 10 9 9 9 8 8 8 8 8 8 8 8 8 8 7 7 7
4 4 4 4 4 4 4 4 4 3 3 3 3 3 4 4 4 5 5 5 6 6 7 7 7 8 8 8 8 8 8 8 8 8 8 8 9 9 8 8 8 9 9 9 9 8 8 8 8 9 9 8 8 8 8 8 9 9 9 8 8 8 7 7 6 6 5 5 5 5 5 5 5 5 5 5 5 5 5 6 7 8 9 9 10 11 11 10 10 9 9 8 8 8 8 8 8 8 8 8 8 8 8
4 4 4 4 4 3 3 3 3 3 3 3 3 4 4 5 5 5 6 6 7 7 7 8 8 8 8 8 8 8 9 9 9 9 9 9 9 9 10 10 10 10 10 9 8 8 8 8 8 8 8 8 7 7 7 7 7 7 7 7 6 6 6 6 5 5 4 4 5 5 5 5 5 5 6 6 6 6 6 5 6 7 7 9 10 10 11 11 11 10 9 9 8 8 8 8 8 8 8 8 8 8 8
4 4 4 3 3 3 3 3 3 3 3 3 4 4 5 5 5 6 7 7 7 8 8 8 8 8 8 8 8 9 9 9 9 9 10 11 10 9 9 11 12 11 10 9 8 8 7 8 8 7 7 7 7 7 7 7 6 6 6 6 6 6 6 6 6 6 6 6 6 6 6 6 7 7 8 9 9 8 7 7 7 7 8 9 9 10 11 12 11 11 10 9 9 8 8 8 8 8 8 8 8 8 8
4 4 3 3 3 3 3 3 3 3 3 3 4 4 5 5 6 7 7 7 8 8 8 8 8 8 8 8 8 8 9 9 9 9 10 11 11 11 9 8 8 9 9 9 9 9 8 7 7 6 7 7 8 8 7 6 6 5 6 7 7 8 8 8 7 7 7 7 7 7 7 6 6 7 8 8 8 8 8 8 8 9 9 9 10 11 11 12 12 12 11 10 9 9 8 8 8 8 8 8 8 8 8
3 3 3 3 3 3 3 3 3 3 3 4 4 5 6 6 7 7 8 8 9 9 8 8 8 8 9 9 9 9 9 9 10 11 11 10 10 11 11 8 8 8 7 7 8 9 9 8 8 8 8 9 9 8 7 6 6 6 7 8 9 8 8 7 6 6 5 5 5 5 5 5 5 5 5 5 5 6 6 8 8 9 9 10 10 11 11 12 12 13 12 11 10 10 9 8 7 7 7 8 8 8 8
3 3 3 3 3 3 3 3 3 3 4 4 5 6 7 7 8 9 9 10 10 9 9 9 9 8 8 9 9 10 10 10 11 12 12 10 8 9 10 10 9 8 5 3 3 5 8 8 9 10 11 10 9 9 8 7 7 7 8 9 8 7 6 5 4 4 4 4 4 4 5 5 4 4 3 3 3 4 4 6 7 7 7 8 10 11 11 11 11 12 12 12 12 11 10 9 8 7 6 7 7 7 7
3 3 3 3 3 3 3 3 4 4 5 5 7 8 10 11 12 13 13 12 11 10 9 9 8 8 8 9 9 10 10 11 11 11 12 11 9 8 8 9 7 6 6 5 5 5 6 7 9 11 12 11 9 8 7 7 7 7 7 7 6 5 4 3 3 3 3 4 4 5 5 5 5 4 4 3 3 3 3 3 4 4 5 7 8 9 9 10 10 11 12 12 12 11 11 10 9 8 7 6 6 6 7
3 3 3 3 3 3 3 4 5 6 7 9 11 12 13 13 13 11 10 10 10 9 8 7 8 8 8 7 8 8 8 9 10 10 10 11 10 9 6 5 5 6 7 9 9 8 7 8 9 10 11 9 8 7 6 6 6 6 5 5 4 3 3 3 3 4 4 5 5 5 6 6 6 6 6 5 5 5 5 4 5 5 6 7 7 7 7 7 8 10 11 12 12 12 11 11 11 10 9 7 6 6 6
3 3 3 3 3 4 4 5 5 6 7 8 9 9 10 9 8 7 7 7 8 8 8 8 8 8 8 7 7 7 7 7 8 9 9 9 9 9 6 6 6 7 7 8 8 8 8 8 8 8 8 7 6 5 4 4 4 4 4 3 3 3 3 3 4 4 4 5 6 7 7 7 7 7 7 7 7 8 7 7 7 6 6 7 9 9 8 7 7 8 10 11 12 13 12 12 12 12 12 10 8 6 5
4 4 4 4 4 4 4 4 5 5 6 7 7 8 8 8 7 7 8 8 7 7 8 8 8 8 8 8 7 6 6 6 7 8 10 8 7 7 8 9 9 8 7 7 6 7 8 8 7 6 5 4 4 4 4 3 3 3 3 3 3 3 3 4 4 5 5 6 7 8 9 9 9 9 9 10 10 10 10 10 10 9 8 8 8 8 9 8 8 8 8 9 10 12 13 13 13 13 13 13 11 9 6
4 4 4 4 4 4 4 4 5 5 6 7 8 8 7 7 7 7 9 8 7 5 5 8 8 8 8 9 8 7 6 6 6 7 9 8 7 6 7 9 9 9 9 8 7 7 6 6 6 5 4 4 4 5 4 3 3 2 2 2 3 3 4 5 6 6 7 8 9 10 11 12 13 13 13 14 13 13 12 12 12 12 12 10 9 8 8 9 9 8 7 6 6 8 11 12 13 14 15 15 14 13 10
4 4 4 4 4 5 5 5 6 7 8 8 8 8 8 8 8 8 9 8 6 4 5 7 7 7 7 8 8 7 7 6 6 6 5 7 8 9 9 10 9 8 7 7 7 7 5 5 5 5 5 5 4 4 4 3 3 2 2 3 3 4 5 6 7 8 9 10 12 13 14 15 17 17 18 18 18 18 17 16 15 15 16 16 14 12 10 10 9 7 3 2 1 3 6 9 12 14 15 16 17 17 15
4 4 4 4 5 5 6 6 7 8 9 9 9 8 9 9 9 8 7 6 5 5 5 7 7 7 7 6 6 6 5 5 6 7 6 7 10 12 14 12 9 7 6 6 6 6 6 5 5 6 6 5 4 2 2 2 2 2 2 3 4 5 7 8 9 9 10 12 14 16 17 17 19 20 21 22 22 22 22 22 20 19 19 16 15 15 14 13 10 6 0 -2 -3 -2 0 4 8 12 16 16 17 18 18
4 4 4 5 5 6 6 7 8 9 9 9 9 8 8 8 8 7 6 6 6 6 7 8 8 8 7 7 6 5 5 5 7 10 13 14 15 15 14 9 6 5 7 7 6 5 5 5 5 5 5 4 3 2 1 1 2 3 5 6 6 7 8 9 11 12 13 15 16 17 18 18 19 20 21 22 23 24 25 25 24 23 22 18 16 15 15 13 10 7 3 -0 -2 -3 -3 -1 3 8 14 15 16 17 19
Height
5896 5895 5895 5895 5894 5894 5894 5893 5893 5893 5892 5892 5892 5891 5891 5890 5890 5889 5889 5889 5888 5888 5887 5887 5886 5886 5885 5884 5884 5884 5883 5883 5882 5882 5881 5881 5880 5880 5879 5879 5879 5878 5878 5877 5877 5876 5875 5875 5874 5874 5873 5873 5872 5871 5871 5870 5870 5869 5869 5869 5868 5868 5867 5867 5866 5866 5865 5865 5865 5864 5864 5864 5863 5863 5863 5863 5863 5862 5860 5860 5859 5859 5859 5859 5859 5859 5859 5858 5858 5857 5856 5855 5855 5855 5855 5854 5854 5854 5853 5853 5852 5852 5852
5895 5895 5894 5894 5894 5894 5893 5893 5892 5892 5892 5891 5891 5890 5890 5890 5889 5889 5888 5888 5887 5887 5886 5886 5885 5885 5884 5884 5883 5883 5882 5882 5881 5881 5880 5880 5879 5879 5879 5878 5878 5877 5877 5876 5876 5875 5874 5874 5873 5873 5872 5872 5871 5871 5870 5869 5869 5869 5868 5867 5867 5867 5866 5866 5865 5865 5864 5864 5864 5863 5863 5863 5862 5862 5861 5862 5862 5861 5859 5859 5859 5858 5858 5857 5857 5857 5857 5856 5856 5856 5855 5854 5854 5854 5854 5853 5853 5852 5852 5851 5851 5851 5850
5894 5894 5894 5894 5893 5893 5893 5892 5892 5891 5891 5890 5890 5890 5889 5889 5889 5888 5888 5887 5887 5886 5885 5885 5884 5884 5884 5883 5882 5882 5881 5881 5880 5880 5879 5879 5878 5878 5877 5877 5876 5876 5876 5875 5875 5874 5874 5873 5873 5872 5871 5871 5870 5870 5869 5869 5868 5868 5867 5866 5866 5866 5865 5865 5864 5864 5863 5863 5862 5862 5862 5861 5861 5861 5860 5860 5861 5861 5859 5858 5857 5857 5858 5857 5856 5856 5855 5855 5855 5854 5854 5853 5853 5852 5852 5852 5852 5852 5851 5850 5850 5850 5849
5894 5894 5893 5893 5893 5892 5892 5891 5891 5890 5890 5890 5889 5889 5889 5888 5888 5887 5887 5886 5886 5885 5885 5884 5884 5883 5883 5882 5882 5881 5881 5880 5879 5879 5879 5878 5877 5877 5876 5876 5875 5875 5874 5874 5874 5873 5873 5872 5872 5871 5870 5870 5869 5869 5868 5868 5867 5866 5866 5865 5865 5864 5864 5864 5863 5863 5862 5862 5861 5861 5860 5860 5860 5859 5859 5859 5859 5860 5859 5857 5856 5856 5856 5856 5855 5855 5854 5854 5854 5853 5853 5853 5852 5851 5851 5851 5851 5851 5850 5849 5849 5849 5848
5893 5893 5893 5892 5892 5891 5891 5890 5890 5890 5889 5889 5888 5888 5888 5887 5887 5886 5886 5885 5885 5884 5884 5883 5883 5882 5882 5881 5881 5880 5880 5879 5879 5878 5878 5877 5876 5876 5875 5874 5874 5874 5873 5873 5872 5872 5871 5871 5870 5870 5869 5869 5868 5868 5867 5867 5866 5865 5865 5864 5864 5864 5863 5863 5862 5862 5861 5861 5860 5860 5859 5859 5859 5858 5858 5858 5858 5858 5857 5856 5855 5855 5854 5855 5855 5854 5854 5853 5853 5852 5852 5851 5851 5850 5850 5850 5850 5849 5849 5849 5848 5848 5847
5893 5892 5892 5891 5891 5891 5890 5890 5889 5889 5889 5888 5888 5887 5887 5886 5886 5885 5885 5884 5884 5883 5883 5882 5882 5881 5881 5880 5880 5879 5879 5879 5878 5877 5877 5876 5875 5875 5874 5874 5873 5872 5872 5872 5871 5871 5870 5870 5869 5869 5868 5868 5867 5867 5866 5865 5865 5864 5864 5863 5863 5862 5862 5861 5861 5860 5860 5859 5859 5859 5858 5858 5857 5857 5857 5857 5857 5857 5856 5855 5854 5854 5853 5853 5853 5853 5853 5852 5852 5851 5851 5850 5850 5849 5849 5849 5849 5848 5848 5848 5847 5847 5846
5892 5892 5891 5891 5890 5890 5889 5889 5889 5888 5888 5887 5887 5886 5886 5885 5885 5884 5884 5883 5883 5882 5882 5881 5881 5880 5880 5879 5879 5879 5878 5878 5877 5876 5876 5875 5874 5874 5873 5873 5872 5871 5871 5870 5870 5869 5869 5869 5868 5868 5867 5867 5866 5865 5865 5864 5864 5863 5863 5862 5861 5861 5861 5860 5860 5859 5859 5858 5858 5858 5857 5857 5856 5856 5855 5855 5855 5855 5855 5854 5854 5853 5852 5852 5852 5851 5851 5851 5851 5850 5849 5849 5849 5849 5848 5848 5847 5847 5847 5846 5846 5846 5845
5891 5891 5891 5890 5890 5889 5889 5888 5888 5887 5887 5886 5886 5885 5885 5884 5884 5883 5883 5882 5882 5881 5881 5880 5880 5879 5879 5879 5878 5878 5877 5876 5876 5875 5875 5874 5874 5873 5872 5871 5871 5870 5870 5869 5869 5868 5868 5867 5867 5866 5866 5865 5865 5864 5864 5863 5863 5862 5861 5861 5860 5860 5859 5859 5859 5858 5857 5857 5857 5856 5856 5856 5855 5854 5854 5854 5854 5853 5853 5853 5852 5852 5851 5850 5850 5850 5850 5850 5849 5849 5849 5848 5848 5847 5847 5847 5846 5846 5845 5845 5845 5845 5844
5891 5890 5890 5889 5889 5889 5888 5888 5887 5886 5886 5885 5885 5884 5884 5883 5883 5882 5882 5881 5881 5880 5880 5879 5879 5879 5878 5878 5877 5877 5876 5875 5875 5874 5874 5873 5873 5872 5871 5870 5870 5869 5869 5868 5868 5867 5867 5866 5865 5865 5864 5864 5864 5863 5863 5862 5861 5861 5860 5860 5859 5859 5858 5858 5857 5857 5856 5856 5855 5855 5855 5854 5854 5853 5853 5853 5852 5852 5851 5851 5851 5851 5850 5849 5849 5849 5848 5848 5848 5848 5847 5847 5847 5846 5846 5845 5845 5845 5844 5844 5844 5844 5843
5890 5889 5889 5889 5888 5888 5887 5887 5886 5886 5885 5884 5884 5883 5883 5882 5882 5881 5881 5880 5880 5879 5879 5879 5878 5878 5877 5877 5876 5876 5875 5874 5874 5873 5873 5872 5872 5871 5870 5869 5869 5868 5868 5867 5867 5866 5865 5865 5864 5864 5863 5863 5862 5862 5861 5861 5860 5859 5859 5859 5858 5858 5857 5857 5856 5855 5855 5854 5854 5854 5853 5853 5853 5852 5852 5851 5851 5850 5850 5850 5850 5849 5849 5849 5848 5848 5847 5847 5847 5846 5846 5846 5845 5845 5845 5844 5844 5844 5843 5843 5843 5842 5842
5889 5889 5888 5888 5887 5887 5886 5886 5885 5885 5884 5884 5883 5883 5882 5881 5881 5880 5880 5879 5879 5878 5878 5877 5877 5877 5876 5876 5875 5875 5874 5874 5873 5872 5872 5871 5871 5870 5869 5869 5868 5867 5867 5866 5866 5865 5864 5864 5863 5863 5862 5862 5861 5860 5860 5859 5859 5858 5858 5857 5857 5856 5856 5855 5855 5854 5854 5853 5853 5852 5852 5852 5851 5851 5850 5850 5849 5849 5849 5849 5848 5848 5848 5847 5847 5846 5846 5846 5845 5845 5845 5844 5844 5844 5844 5843 5843 5843 5842 5842 5841 5841 5841
5888 5888 5887 5887 5886 5885 5885 5884 5884 5884 5883 5883 5882 5882 5881 5880 5880 5879 5879 5878 5878 5877 5877 5876 5876 5875 5875 5874 5874 5874 5873 5873 5872 5871 5871 5870 5869 5869 5869 5868 5867 5866 5866 5865 5865 5864 5864 5863 5862 5862 5861 5861 5860 5859 5859 5858 5858 5857 5856 5856 5855 5855 5854 5854 5854 5853 5853 5852 5851 5851 5851 5850 5850 5849 5849 5849 5848 5848 5848 5847 5847 5847 5846 5846 5845 5845 5845 5844 5844 5844 5844 5843 5843 5843 5842 5842 5842 5841 5841 5841 5840 5840 5839
5887 5887 5886 5886 5885 5884 5884 5884 5883 5882 5882 5881 5881 5880 5880 5879 5879 5879 5878 5878 5877 5876 5876 5875 5875 5874 5874 5874 5873 5873 5872 5871 5871 5870 5870 5869 5869 5868 5867 5867 5866 5865 5865 5864 5864 5863 5863 5862 5862 5861 5860 5860 5859 5859 5858 5857 5857 5856 5855 5855 5854 5854 5853 5853 5852 5852 5852 5851 5850 5849 5849 5849 5849 5848 5848 5847 5847 5847 5846 5846 5845 5845 5845 5844 5844 5844 5844 5843 5843 5843 5842 5842 5842 5841 5841 5841 5841 5840 5840 5839 5839 5839 5839
5886 5886 5885 5885 5884 5884 5883 5883 5882 5881 5881 5880 5880 5879 5879 5878 5878 5878 5877 5877 5876 5876 5875 5874 5874 5874 5873 5873 5872 5871 5871 5870 5870 5869 5869 5868 5868 5867 5866 5866 5865 5864 5864 5863 5863 5862 5862 5861 5860 5860 5859 5859 5858 5858 5857 5856 5856 5855 5854 5854 5853 5853 5852 5852 5851 5851 5851 5850 5849 5849 5848 5848 5847 5847 5846 5846 5845 5845 5845 5844 5844 5844 5844 5843 5843 5843 5842 5842 5842 5841 5841 5841 5840 5840 5840 5839 5839 5839 5839 5838 5838 5838 5837
5886 5885 5884 5884 5884 5883 5882 5882 5881 5881 5880 5879 5879 5878 5878 5877 5877 5876 5876 5875 5875 5874 5874 5874 5873 5873 5872 5871 5871 5870 5870 5869 5869 5868 5867 5867 5866 5866 5865 5864 5864 5863 5863 5862 5861 5861 5860 5860 5859 5859 5858 5857 5857 5856 5856 5855 5854 5854 5854 5853 5852 5852 5851 5851 5850 5850 5849 5849 5848 5848 5847 5846 5846 5845 5845 5845 5844 5844 5844 5843 5843 5843 5842 5842 5842 5841 5841 5841 5840 5840 5840 5839 5839 5839 5839 5838 5838 5838 5838 5837 5837 5837 5836
5885 5884 5884 5883 5883 5882 5882 5881 5880 5880 5879 5879 5878 5877 5877 5876 5876 5875 5874 5874 5874 5873 5873 5872 5872 5871 5871 5870 5870 5869 5869 5868 5868 5867 5866 5866 5865 5865 5864 5864 5863 5862 5861 5861 5860 5859 5859 5859 5858 5857 5857 5856 5855 5855 5854 5854 5853 5853 5852 5852 5851 5850 5850 5849 5849 5849 5848 5848 5847 5846 5846 5845 5845 5844 5844 5843 5843 5842 5842 5842 5841 5841 5841 5840 5840 5840 5839 5839 5839 5839 5839 5838 5838 5838 5837 5837 5837 5836 5836 5836 5836 5835 5835
5884 5883 5883 5882 5882 5881 5881 5880 5879 5879 5878 5878 5877 5876 5876 5875 5874 5874 5874 5873 5872 5872 5871 5871 5870 5870 5869 5869 5869 5868 5868 5867 5867 5866 5865 5865 5864 5864 5863 5863 5862 5861 5860 5860 5859 5859 5858 5857 5857 5856 5855 5854 5854 5854 5853 5852 5852 5851 5851 5850 5850 5849 5849 5848 5848 5847 5847 5846 5846 5845 5845 5844 5844 5843 5843 5842 5841 5841 5840 5840 5840 5839 5839 5839 5839 5839 5838 5838 5838 5837 5837 5837 5837 5836 5836 5836 5835 5835 5835 5835 5834 5834 5834
5883 5882 5882 5881 5881 5880 5880 5879 5879 5878 5877 5877 5876 5876 5875 5874 5874 5873 5873 5872 5871 5871 5870 5869 5869 5869 5868 5867 5867 5867 5866 5866 5865 5865 5864 5864 5864 5863 5862 5862 5861 5860 5859 5859 5858 5857 5857 5856 5855 5855 5854 5853 5853 5852 5852 5851 5850 5850 5849 5849 5849 5848 5848 5847 5847 5846 5845 5845 5844 5844 5844 5843 5842 5842 5841 5841 5840 5839 5839 5839 5838 5838 5838 5837 5837 5837 5837 5836 5836 5836 5836 5835 5835 5835 5834 5834 5834 5834 5834 5834 5833 5833 5833
5882 5881 5881 5880 5880 5879 5879 5878 5878 5877 5876 5876 5875 5875 5874 5874 5873 5872 5872 5871 5870 5870 5869 5868 5868 5867 5866 5866 5865 5865 5864 5864 5864 5864 5863 5863 5862 5862 5861 5860 5860 5859 5858 5858 5857 5856 5855 5855 5854 5854 5853 5852 5851 5851 5850 5850 5849 5849 5848 5848 5847 5847 5846 5846 5845 5845 5844 5844 5843 5843 5842 5841 5841 5840 5840 5839 5839 5838 5838 5837 5837 5836 5836 5836 5835 5835 5835 5835 5834 5834 5834 5834 5834 5834 5833 5833 5833 5833 5832 5832 5832 5832 5831
5880 5880 5879 5879 5879 5878 5878 5877 5876 5876 5875 5875 5874 5874 5873 5872 5872 5871 5870 5870 5869 5869 5868 5867 5867 5866 5865 5864 5864 5863 5863 5863 5862 5862 5861 5861 5861 5860 5860 5859 5859 5858 5857 5856 5856 5855 5854 5854 5853 5852 5852 5851 5850 5849 5849 5848 5848 5847 5847 5846 5845 5845 5844 5844 5844 5843 5843 5842 5841 5841 5840 5840 5839 5839 5838 5838 5837 5837 5836 5836 5835 5835 5834 5834 5834 5834 5833 5833 5833 5833 5833 5832 5832 5832 5832 5832 5831 5831 5831 5831 5830 5830 5830
5879 5879 5878 5878 5877 5877 5876 5876 5875 5875 5874 5874 5873 5872 5872 5871 5871 5870 5869 5869 5868 5868 5867 5866 5865 5865 5864 5863 5863 5862 5861 5861 5860 5860 5860 5859 5859 5859 5858 5858 5857 5856 5856 5855 5854 5854 5853 5852 5852 5851 5850 5849 5849 5848 5847 5847 5846 5845 5845 5844 5844 5844 5843 5842 5842 5841 5841 5840 5840 5839 5839 5838 5838 5837 5836 5836 5835 5835 5834 5834 5834 5833 5833 5832 5832 5832 5832 5831 5831 5831 5831 5831 5830 5830 5830 5830 5830 5830 5829 5829 5829 5829 5829
5877 5877 5877 5876 5876 5875 5875 5874 5874 5873 5873 5872 5872 5871 5871 5870 5869 5869 5868 5868 5867 5867 5866 5865 5864 5864 5863 5862 5862 5861 5860 5859 5859 5859 5858 5858 5857 5857 5856 5856 5855 5855 5854 5853 5853 5852 5851 5851 5850 5849 5849 5848 5847 5846 5845 5845 5844 5844 5843 5843 5842 5842 5841 5840 5840 5839 5839 5838 5838 5837 5837 5836 5835 5835 5834 5834 5834 5833 5833 5832 5832 5831 5831 5831 5830 5830 5830 5830 5829 5829 5829 5829 5829 5829 5829 5829 5828 5828 5828 5828 5828 5828 5827
5876 5876 5875 5875 5874 5874 5874 5873 5872 5872 5871 5871 5870 5870 5869 5869 5868 5868 5867 5867 5866 5865 5865 5864 5864 5863 5862 5861 5860 5860 5859 5858 5858 5857 5857 5856 5855 5855 5854 5854 5854 5853 5852 5852 5851 5850 5849 5849 5848 5848 5847 5846 5845 5845 5844 5843 5842 5842 5841 5841 5840 5840 5839 5839 5838 5837 5837 5836 5835 5835 5834 5834 5834 5833 5832 5832 5831 5831 5831 5830 5830 5830 5829 5829 5829 5829 5828 5828 5828 5828 5828 5828 5827 5827 5827 5827 5827 5827 5826 5826 5826 5826 5826
5874 5874 5874 5874 5873 5873 5872 5872 5871 5871 5870 5869 5869 5869 5868 5868 5867 5867 5866 5865 5865 5864 5864 5863 5862 5862 5861 5860 5859 5859 5858 5857 5857 5856 5855 5854 5854 5854 5853 5852 5852 5851 5850 5850 5849 5848 5848 5847 5846 5846 5845 5845 5844 5843 5842 5841 5841 5840 5839 5839 5838 5838 5837 5837 5836 5835 5834 5834 5833 5833 5832 5832 5831 5831 5830 5830 5829 5829 5829 5828 5828 5828 5828 5827 5827 5827 5826 5826 5826 5826 5826 5826 5826 5825 5825 5825 5825 5825 5825 5824 5824 5824 5824
5873 5873 5873 5872 5872 5871 5871 5870 5870 5869 5869 5868 5868 5867 5867 5866 5866 5865 5865 5864 5864 5863 5862 5862 5861 5860 5859 5859 5858 5857 5857 5856 5855 5855 5854 5853 5853 5852 5851 5851 5850 5849 5849 5848 5847 5846 5846 5845 5844 5844 5844 5843 5842 5841 5840 5840 5839 5838 5837 5837 5836 5836 5835 5834 5834 5833 5833 5832 5831 5831 5830 5830 5829 5829 5828 5828 5828 5827 5827 5826 5826 5826 5826 5825 5825 5825 5825 5824 5824 5824 5824 5824 5824 5824 5824 5824 5823 5823 5823 5823 5823 5823 5822
5872 5872 5871 5871 5871 5870 5870 5869 5869 5868 5868 5867 5866 5866 5865 5865 5864 5864 5863 5863 5862 5862 5861 5860 5860 5859 5858 5858 5857 5856 5855 5855 5854 5854 5853 5852 5851 5851 5850 5849 5848 5848 5847 5846 5845 5845 5844 5843 5843 5842 5841 5841 5840 5840 5839 5838 5837 5836 5835 5835 5834 5834 5833 5832 5832 5831 5830 5830 5829 5829 5828 5828 5827 5827 5826 5826 5825 5825 5825 5824 5824 5824 5824 5824 5823 5823 5823 5823 5822 5822 5822 5822 5822 5822 5822 5822 5821 5821 5821 5821 5821 5821 5820
5871 5870 5870 5870 5869 5869 5868 5868 5867 5867 5866 5865 5865 5864 5864 5863 5863 5862 5862 5861 5861 5860 5860 5859 5859 5858 5857 5856 5855 5855 5854 5854 5853 5852 5851 5851 5850 5849 5849 5848 5847 5846 5845 5844 5844 5843 5842 5841 5841 5840 5839 5839 5839 5838 5837 5836 5835 5834 5834 5833 5832 5831 5831 5830 5829 5829 5828 5828 5827 5826 5826 5825 5825 5825 5824 5824 5824 5823 5823 5823 5822 5822 5822 5821 5821 5821 5821 5821 5820 5820 5820 5820 5820 5820 5820 5820 5819 5819 5819 5819 5819 5819 5819
5870 5869 5869 5868 5868 5867 5867 5866 5866 5865 5865 5864 5864 5863 5862 5862 5861 5861 5860 5860 5859 5859 5858 5858 5857 5856 5855 5855 5854 5853 5853 5852 5851 5851 5850 5849 5849 5848 5847 5846 5845 5845 5844 5843 5842 5841 5840 5840 5839 5838 5838 5837 5836 5836 5835 5834 5834 5833 5832 5831 5830 5829 5829 5828 5827 5827 5826 5825 5825 5824 5824 5824 5823 5823 5822 5822 5822 5821 5821 5820 5820 5820 5820 5819 5819 5819 5819 5819 5819 5818 5818 5818 5818 5818 5818 5818 5818 5817 5817 5817 5817 5817 5817
5869 5868 5867 5867 5866 5866 5865 5865 5864 5864 5863 5863 5862 5862 5861 5860 5860 5859 5859 5859 5858 5857 5857 5856 5855 5855 5854 5854 5853 5852 5851 5851 5850 5849 5849 5848 5847 5846 5846 5845 5844 5843 5842 5841 5840 5840 5839 5838 5837 5837 5835 5835 5834 5834 5833 5833 5832 5831 5830 5829 5828 5827 5827 5826 5825 5824 5824 5823 5823 5822 5822 5821 5821 5821 5820 5820 5819 5819 5819 5819 5818 5818 5818 5818 5817 5817 5817 5817 5816 5816 5816 5816 5816 5816 5816 5816 5815 5815 5815 5815 5815 5815 5814
5867 5867 5866 5865 5865 5864 5864 5863 5863 5862 5862 5861 5861 5860 5860 5859 5859 5858 5858 5857 5856 5856 5855 5855 5854 5854 5853 5852 5851 5850 5850 5849 5849 5848 5847 5847 5846 5845 5844 5843 5843 5842 5841 5840 5839 5838 5837 5836 5835 5835 5834 5833 5832 5832 5831 5830 5830 5829 5829 5828 5827 5826 5825 5824 5823 5823 5822 5821 5821 5821 5820 5820 5819 5819 5819 5818 5818 5817 5817 5817 5816 5816 5816 5815 5815 5815 5815 5814 5814 5814 5814 5814 5814 5814 5814 5814 5813 5813 5813 5813 5813 5813 5813
5866 5865 5865 5864 5864 5863 5862 5862 5861 5860 5860 5859 5859 5859 5858 5858 5857 5857 5856 5855 5855 5854 5854 5853 5853 5852 5851 5850 5850 5849 5848 5848 5847 5846 5845 5845 5844 5843 5843 5842 5841 5840 5839 5838 5837 5836 5836 5835 5834 5833 5832 5832 5831 5830 5829 5829 5828 5827 5827 5826 5825 5824 5824 5823 5822 5821 5820 5820 5819 5819 5819 5818 5818 5817 5817 5816 5816 5815 5815 5815 5814 5814 5814 5814 5813 5813 5813 5813 5812 5812 5812 5812 5812 5812 5811 5811 5811 5811 5811 5811 5811 5810 5810
5864 5864 5864 5863 5862 5862 5861 5860 5859 5859 5859 5858 5857 5857 5856 5856 5855 5855 5854 5854 5853 5853 5852 5852 5851 5850 5850 5849 5848 5848 5847 5846 5845 5844 5844 5843 5842 5842 5841 5840 5839 5839 5838 5837 5836 5835 5834 5833 5832 5831 5830 5830 5829 5828 5827 5827 5826 5825 5825 5824 5824 5823 5822 5821 5820 5820 5819 5818 5818 5818 5817 5816 5816 5815 5815 5814 5814 5814 5813 5813 5812 5812 5812 5811 5811 5811 5811 5810 5810 5810 5810 5810 5809 5809 5809 5809 5809 5809 5809 5809 5808 5808 5808
5863 5863 5862 5861 5861 5860 5859 5859 5858 5857 5857 5856 5856 5855 5854 5854 5854 5853 5853 5852 5852 5851 5850 5850 5849 5849 5848 5847 5847 5846 5845 5844 5844 5843 5842 5841 5841 5840 5839 5838 5838 5837 5836 5835 5834 5833 5832 5831 5831 5830 5829 5828 5827 5826 5825 5824 5824 5824 5823 5822 5822 5821 5821 5820 5819 5818 5818 5817 5816 5816 5815 5815 5814 5814 5813 5813 5812 5811 5811 5811 5810 5810 5809 5809 5809 5809 5809 5808 5808 5808 5808 5807 5807 5807 5807 5807 5807 5806 5806 5806 5806 5806 5806
5861 5861 5860 5860 5859 5859 5858 5857 5856 5855 5855 5854 5854 5853 5853 5852 5852 5851 5851 5850 5850 5849 5849 5848 5847 5847 5846 5845 5845 5844 5843 5842 5842 5841 5840 5839 5839 5838 5837 5836 5836 5835 5834 5834 5833 5832 5831 5830 5829 5828 5827 5826 5825 5824 5824 5823 5822 5822 5821 5820 5820 5819 5819 5818 5818 5817 5816 5815 5815 5814 5814 5813 5812 5812 5811 5810 5810 5809 5809 5809 5808 5808 5807 5807 5807 5806 5806 5806 5806 5805 5805 5805 5805 5805 5804 5804 5804 5804 5804 5804 5804 5804 5804
5860 5859 5859 5858 5858 5857 5856 5855 5854 5854 5853 5853 5852 5852 5851 5850 5850 5849 5849 5848 5848 5847 5847 5846 5845 5845 5844 5844 5843 5842 5841 5840 5840 5839 5839 5838 5837 5836 5835 5834 5834 5833 5833 5832 5831 5830 5829 5828 5827 5826 5826 5825 5824 5823 5822 5821 5820 5820 5819 5819 5818 5818 5817 5817 5816 5815 5814 5814 5813 5812 5812 5811 5810 5809 5809 5809 5808 5807 5807 5806 5806 5805 5805 5804 5804 5804 5804 5803 5803 5803 5803 5803 5802 5802 5802 5802 5802 5802 5802 5802 5801 5801 5801
5859 5858 5857 5857 5856 5855 5855 5854 5854 5853 5852 5852 5851 5850 5849 5849 5848 5848 5847 5846 5846 5845 5844 5844 5844 5843 5842 5841 5840 5839 5839 5838 5838 5837 5836 5835 5834 5834 5833 5832 5832 5831 5831 5830 5829 5829 5828 5827 5826 5825 5824 5823 5822 5821 5820 5819 5819 5818 5817 5817 5816 5815 5815 5814 5814 5813 5813 5812 5811 5810 5809 5809 5808 5808 5807 5806 5806 5805 5804 5804 5804 5803 5803 5802 5802 5801 5801 5801 5800 5800 5800 5800 5800 5800 5799 5799 5799 5799 5799 5799 5799 5799 5799
5857 5856 5856 5855 5855 5854 5854 5853 5852 5852 5851 5850 5850 5849 5849 5848 5847 5847 5846 5845 5844 5843 5843 5842 5841 5841 5840 5839 5838 5838 5837 5836 5835 5835 5834 5833 5832 5831 5831 5830 5829 5829 5829 5828 5827 5827 5826 5825 5824 5823 5822 5821 5820 5819 5819 5818 5817 5816 5815 5815 5814 5813 5813 5812 5811 5811 5810 5810 5809 5808 5808 5807 5806 5805 5804 5804 5803 5803 5802 5802 5801 5801 5800 5800 5799 5799 5799 5798 5798 5798 5797 5797 5797 5797 5797 5797 5797 5797 5797 5797 5797 5796 5796
5855 5855 5854 5854 5854 5853 5852 5852 5851 5851 5850 5849 5849 5849 5848 5847 5846 5846 5845 5844 5843 5842 5841 5840 5839 5839 5838 5837 5836 5835 5835 5834 5833 5833 5832 5831 5830 5829 5829 5828 5827 5827 5826 5826 5825 5824 5824 5823 5822 5821 5820 5819 5818 5818 5817 5816 5815 5814 5814 5813 5812 5811 5810 5809 5809 5808 5808 5807 5807 5806 5805 5804 5804 5803 5802 5802 5801 5800 5800 5799 5799 5798 5798 5798 5797 5797 5796 5796 5795 5795 5795 5794 5794 5794 5794 5794 5794 5794 5794 5794 5794 5794 5794
5854 5854 5853 5853 5852 5852 5851 5850 5850 5849 5849 5849 5848 5847 5847 5846 5845 5844 5844 5843 5842 5841 5840 5839 5838 5837 5836 5835 5834 5834 5833 5832 5831 5830 5829 5829 5828 5827 5826 5825 5825 5824 5824 5824 5823 5822 5822 5821 5820 5819 5818 5817 5816 5816 5815 5814 5813 5812 5811 5810 5809 5809 5808 5807 5806 5806 5805 5804 5804 5804 5803 5802 5801 5801 5800 5799 5799 5798 5798 5797 5797 5796 5795 5795 5795 5794 5794 5794 5793 5793 5792 5792 5792 5792 5792 5791 5791 5791 5791 5791 5791 5791 5791
5853 5852 5852 5851 5851 5850 5850 5849 5849 5849 5848 5848 5847 5846 5845 5845 5844 5843 5842 5841 5840 5839 5838 5837 5836 5835 5834 5834 5833 5832 5831 5830 5829 5828 5827 5826 5825 5824 5824 5823 5823 5822 5822 5821 5821 5820 5819 5819 5818 5817 5816 5815 5814 5814 5813 5812 5811 5810 5809 5808 5807 5806 5805 5804 5804 5803 5803 5802 5801 5801 5800 5799 5799 5798 5798 5797 5796 5796 5795 5795 5794 5794 5793 5793 5792 5792 5791 5791 5791 5790 5790 5789 5789 5789 5789 5789 5789 5789 5789 5788 5788 5788 5788
5851 5851 5850 5850 5849 5849 5849 5848 5848 5847 5847 5846 5845 5845 5844 5843 5842 5841 5840 5839 5839 5838 5837 5836 5835 5834 5833 5832 5831 5830 5829 5828 5828 5827 5825 5824 5824 5823 5822 5821 5821 5820 5820 5819 5819 5818 5817 5816 5815 5815 5814 5813 5812 5811 5810 5809 5809 5808 5807 5806 5805 5804 5803 5802 5801 5800 5800 5799 5799 5798 5798 5797 5796 5796 5795 5794 5794 5793 5793 5792 5792 5791 5790 5790 5789 5789 5789 5789 5788 5788 5787 5787 5787 5786 5786 5786 5786 5786 5786 5785 5785 5785 5785
5849 5849 5849 5849 5848 5848 5847 5847 5846 5846 5845 5845 5844 5843 5842 5841 5840 5839 5839 5838 5837 5836 5835 5834 5833 5832 5831 5830 5829 5828 5827 5826 5825 5825 5824 5823 5822 5821 5820 5819 5819 5819 5818 5817 5816 5816 5815 5814 5813 5812 5811 5811 5810 5809 5808 5807 5806 5805 5804 5803 5802 5801 5800 5799 5799 5798 5797 5796 5796 5795 5795 5794 5794 5793 5792 5792 5791 5790 5790 5789 5789 5788 5788 5787 5787 5786 5786 5786 5785 5785 5784 5784 5784 5784 5783 5783 5783 5783 5783 5783 5783 5783 5783
5848 5848 5848 5847 5847 5846 5846 5845 5845 5844 5844 5843 5842 5842 5841 5839 5839 5837 5836 5835 5834 5834 5833 5832 5831 5830 5829 5828 5827 5826 5825 5824 5823 5823 5822 5821 5820 5819 5819 5818 5817 5816 5816 5815 5814 5813 5813 5812 5811 5810 5809 5808 5807 5806 5805 5804 5804 5803 5802 5801 5800 5799 5798 5797 5796 5795 5794 5794 5793 5792 5792 5791 5791 5790 5789 5789 5788 5788 5787 5787 5786 5785 5785 5784 5784 5783 5783 5783 5782 5782 5782 5781 5781 5780 5780 5780 5780 5780 5780 5780 5780 5780 5779
5847 5846 5846 5846 5845 5845 5844 5844 5843 5843 5842 5841 5841 5840 5839 5838 5836 5835 5834 5833 5832 5831 5830 5829 5829 5828 5827 5826 5825 5824 5823 5822 5821 5820 5819 5819 5818 5817 5817 5816 5815 5814 5813 5812 5812 5811 5810 5809 5808 5808 5807 5806 5805 5804 5803 5802 5801 5800 5799 5798 5797 5796 5795 5794 5794 5793 5792 5791 5790 5789 5789 5788 5788 5787 5787 5786 5785 5785 5784 5784 5783 5783 5782 5781 5781 5780 5780 5779 5779 5779 5778 5778 5778 5778 5777 5777 5777 5777 5777 5777 5776 5776 5777
5845 5844 5844 5844 5844 5843 5842 5842 5841 5841 5840 5839 5839 5838 5837 5836 5834 5833 5832 5831 5830 5829 5828 5827 5826 5825 5824 5823 5822 5821 5820 5819 5818 5817 5817 5816 5816 5815 5814 5814 5813 5812 5810 5810 5809 5808 5808 5807 5806 5805 5804 5803 5802 5801 5800 5799 5798 5797 5796 5795 5794 5794 5793 5792 5791 5790 5789 5788 5787 5787 5786 5785 5785 5784 5784 5783 5782 5782 5781 5781 5780 5779 5779 5778 5778 5777 5777 5776 5776 5775 5775 5774 5774 5774 5774 5774 5774 5773 5773 5773 5773 5773 5773
5843 5842 5842 5842 5841 5841 5840 5839 5839 5838 5838 5837 5837 5836 5835 5834 5833 5831 5830 5829 5828 5827 5826 5824 5823 5822 5821 5821 5820 5819 5818 5816 5815 5815 5814 5814 5813 5813 5812 5811 5810 5809 5808 5807 5806 5805 5805 5804 5803 5802 5802 5801 5799 5799 5798 5796 5795 5794 5794 5793 5792 5791 5790 5789 5788 5787 5786 5785 5784 5784 5783 5782 5782 5781 5780 5780 5779 5779 5778 5778 5777 5776 5776 5775 5774 5774 5773 5773 5772 5772 5771 5771 5771 5771 5770 5770 5770 5770 5769 5769 5769 5769 5769
5840 5840 5839 5839 5839 5838 5838 5837 5836 5836 5835 5835 5834 5834 5833 5832 5831 5829 5829 5827 5826 5825 5824 5823 5821 5820 5819 5818 5817 5816 5815 5814 5813 5812 5811 5811 5810 5810 5809 5808 5807 5806 5806 5805 5804 5803 5802 5801 5800 5800 5799 5798 5797 5796 5795 5794 5793 5792 5791 5790 5789 5788 5787 5786 5785 5784 5784 5783 5782 5781 5780 5779 5779 5778 5777 5777 5776 5775 5775 5774 5774 5773 5773 5772 5771 5770 5770 5769 5769 5769 5768 5768 5767 5767 5767 5767 5766 5766 5766 5766 5766 5765 5766
5837 5837 5837 5836 5836 5835 5834 5834 5834 5833 5832 5832 5831 5831 5830 5829 5828 5827 5826 5825 5824 5823 5821 5820 5819 5818 5817 5815 5814 5814 5813 5811 5810 5810 5809 5808 5808 5807 5806 5806 5804 5804 5803 5802 5801 5800 5799 5799 5798 5797 5796 5795 5794 5793 5792 5791 5790 5789 5788 5787 5786 5785 5784 5784 5783 5782 5781 5780 5779 5778 5777 5776 5775 5774 5774 5773 5773 5772 5771 5771 5770 5770 5769 5769 5768 5767 5767 5766 5766 5765 5765 5764 5764 5764 5763 5763 5763 5763 5763 5762 5762 5762 5762
5835 5834 5834 5834 5833 5832 5832 5831 5831 5830 5829 5829 5828 5828 5827 5826 5825 5824 5823 5822 5821 5820 5818 5817 5816 5815 5814 5813 5812 5811 5810 5809 5808 5807 5806 5806 5805 5804 5803 5803 5802 5802 5800 5799 5799 5798 5797 5796 5795 5794 5793 5792 5791 5790 5789 5789 5788 5787 5786 5785 5784 5783 5782 5781 5780 5779 5778 5777 5776 5775 5774 5773 5772 5771 5770 5770 5769 5769 5768 5767 5767 5766 5766 5766 5765 5764 5764 5763 5762 5762 5761 5761 5760 5760 5760 5759 5759 5759 5759 5759 5759 5759 5758
5832 5832 5831 5831 5830 5830 5829 5829 5828 5827 5827 5826 5825 5824 5824 5823 5822 5821 5820 5819 5818 5817 5815 5814 5813 5813 5812 5811 5809 5809 5808 5806 5805 5804 5804 5803 5802 5801 5800 5799 5799 5799 5799 5797 5796 5795 5794 5793 5792 5791 5790 5789 5789 5788 5787 5786 5785 5784 5783 5782 5781 5780 5779 5778 5777 5776 5775 5774 5773 5772 5771 5770 5769 5768 5767 5766 5765 5765 5764 5764 5763 5762 5762 5762 5761 5761 5760 5759 5759 5758 5758 5757 5757 5756 5756 5756 5756 5756 5755 5755 5755 5755 5754
5830 5829 5829 5829 5828 5828 5827 5826 5825 5825 5824 5824 5823 5822 5821 5820 5819 5818 5817 5815 5814 5813 5812 5811 5810 5809 5809 5809 5807 5806 5805 5804 5803 5802 5801 5799 5799 5799 5798 5797 5797 5796 5796 5795 5794 5793 5793 5791 5789 5789 5788 5787 5786 5785 5784 5784 5783 5782 5781 5780 5779 5778 5776 5775 5774 5773 5772 5771 5770 5769 5768 5767 5766 5765 5764 5763 5762 5761 5760 5759 5759 5758 5758 5757 5757 5756 5756 5756 5755 5755 5754 5754 5753 5753 5752 5752 5752 5752 5752 5752 5751 5751 5751
5828 5827 5827 5826 5826 5825 5824 5824 5823 5823 5822 5821 5820 5819 5818 5817 5816 5814 5814 5813 5812 5810 5809 5808 5808 5807 5806 5805 5804 5803 5802 5801 5799 5799 5798 5797 5796 5796 5796 5795 5794 5794 5794 5792 5791 5791 5791 5789 5788 5786 5785 5784 5784 5783 5782 5781 5780 5779 5778 5777 5776 5775 5774 5773 5771 5770 5769 5768 5767 5766 5765 5764 5762 5761 5760 5760 5759 5758 5756 5755 5755 5754 5753 5753 5752 5752 5752 5751 5751 5751 5750 5750 5749 5749 5749 5749 5748 5748 5748 5748 5748 5748 5747
5826 5825 5825 5824 5824 5823 5823 5822 5821 5820 5819 5819 5818 5817 5816 5814 5813 5811 5810 5810 5808 5807 5806 5806 5805 5805 5804 5803 5802 5801 5799 5798 5797 5796 5795 5795 5794 5793 5793 5793 5793 5792 5791 5791 5790 5789 5788 5787 5786 5784 5784 5783 5781 5780 5779 5779 5778 5776 5776 5774 5773 5772 5771 5770 5769 5768 5766 5765 5764 5763 5761 5760 5759 5758 5757 5756 5755 5754 5754 5752 5750 5749 5749 5749 5748 5747 5747 5747 5747 5746 5746 5746 5745 5745 5745 5744 5744 5744 5744 5744 5744 5744 5744
5824 5824 5823 5822 5822 5821 5820 5820 5819 5818 5817 5816 5815 5814 5813 5811 5810 5810 5810 5807 5805 5804 5804 5803 5803 5802 5801 5800 5799 5798 5796 5795 5794 5793 5792 5792 5792 5791 5789 5789 5789 5789 5789 5789 5788 5787 5786 5785 5784 5783 5782 5781 5779 5778 5777 5776 5775 5774 5773 5772 5771 5769 5768 5767 5766 5765 5764 5762 5761 5759 5758 5757 5755 5754 5753 5752 5751 5750 5749 5748 5747 5746 5745 5744 5744 5743 5742 5742 5742 5742 5742 5741 5741 5741 5741 5740 5740 5740 5740 5740 5740 5740 5740
5822 5821 5821 5820 5820 5819 5819 5818 5817 5816 5815 5814 5814 5813 5811 5809 5808 5807 5806 5804 5802 5801 5800 5800 5799 5799 5799 5797 5796 5795 5794 5793 5792 5791 5790 5789 5788 5788 5787 5786 5786 5785 5785 5786 5786 5785 5784 5784 5782 5781 5780 5780 5778 5776 5774 5774 5773 5771 5770 5769 5768 5766 5765 5764 5763 5761 5760 5759 5757 5756 5754 5753 5751 5750 5749 5748 5747 5746 5745 5744 5743 5743 5741 5740 5739 5739 5738 5737 5737 5737 5737 5737 5736 5736 5736 5736 5736 5735 5735 5735 5735 5736 5736
5820 5819 5819 5818 5818 5817 5816 5815 5815 5814 5813 5814 5812 5810 5809 5808 5806 5804 5803 5802 5800 5798 5797 5797 5796 5796 5795 5795 5794 5792 5791 5790 5789 5788 5787 5786 5785 5784 5784 5784 5783 5783 5782 5782 5782 5782 5781 5781 5780 5779 5778 5778 5777 5775 5772 5771 5770 5769 5767 5765 5764 5763 5762 5760 5759 5758 5756 5755 5753 5752 5750 5749 5747 5745 5744 5743 5742 5740 5739 5739 5738 5737 5737 5735 5735 5734 5733 5733 5732 5732 5732 5732 5732 5731 5731 5731 5731 5731 5731 5731 5731 5731 5732
5818 5817 5817 5816 5815 5814 5814 5814 5812 5811 5810 5809 5808 5807 5806 5805 5804 5802 5801 5800 5798 5795 5794 5794 5793 5792 5792 5792 5791 5790 5788 5788 5787 5785 5785 5784 5782 5781 5781 5780 5780 5780 5780 5779 5779 5778 5777 5778 5778 5778 5776 5775 5775 5774 5772 5769 5767 5765 5764 5763 5761 5760 5758 5757 5755 5754 5752 5751 5749 5747 5745 5744 5742 5740 5739 5737 5736 5735 5734 5733 5732 5732 5731 5731 5730 5730 5729 5728 5727 5727 5727 5727 5727 5726 5726 5726 5726 5726 5726 5726 5727 5727 5727
5815 5815 5814 5814 5813 5812 5811 5810 5810 5809 5808 5807 5806 5805 5804 5803 5801 5799 5798 5797 5794 5792 5791 5790 5790 5789 5789 5788 5788 5787 5786 5785 5784 5783 5782 5781 5780 5779 5778 5777 5777 5777 5777 5776 5776 5775 5774 5774 5774 5775 5774 5773 5772 5772 5770 5768 5765 5763 5761 5760 5758 5757 5755 5753 5751 5749 5748 5746 5744 5743 5740 5739 5737 5735 5734 5732 5731 5729 5728 5727 5726 5726 5725 5725 5725 5724 5724 5724 5723 5722 5722 5722 5722 5722 5722 5722 5722 5722 5722 5722 5722 5722 5723
5813 5812 5812 5811 5810 5809 5809 5808 5807 5806 5805 5804 5803 5802 5802 5802 5801 5798 5796 5793 5791 5789 5788 5787 5787 5786 5786 5785 5785 5784 5783 5782 5782 5781 5780 5778 5777 5776 5776 5775 5775 5774 5774 5774 5773 5773 5773 5771 5770 5770 5770 5769 5769 5769 5768 5767 5764 5762 5759 5757 5755 5753 5751 5750 5748 5746 5744 5742 5740 5738 5736 5734 5732 5730 5728 5727 5725 5724 5722 5722 5721 5720 5719 5719 5718 5718 5718 5718 5718 5718 5717 5717 5717 5717 5717 5717 5717 5717 5717 5717 5718 5718 5718
5810 5810 5809 5808 5808 5807 5806 5805 5804 5804 5802 5801 5800 5799 5799 5801 5800 5796 5793 5790 5788 5787 5786 5785 5784 5784 5783 5782 5782 5781 5780 5779 5779 5778 5777 5776 5774 5774 5774 5774 5773 5772 5772 5771 5770 5770 5769 5767 5766 5765 5765 5765 5765 5765 5765 5764 5762 5759 5757 5754 5752 5750 5747 5745 5743 5741 5739 5737 5735 5733 5731 5729 5727 5725 5724 5721 5719 5718 5717 5716 5715 5714 5714 5713 5713 5712 5712 5712 5713 5713 5713 5712 5712 5712 5712 5712 5713 5713 5713 5713 5713 5713 5714
5808 5807 5806 5806 5805 5804 5803 5803 5802 5800 5799 5799 5798 5797 5797 5798 5796 5792 5789 5787 5786 5784 5784 5784 5783 5781 5780 5779 5779 5778 5778 5776 5775 5774 5774 5773 5772 5772 5772 5772 5771 5770 5769 5768 5767 5766 5765 5763 5762 5761 5760 5760 5760 5761 5761 5761 5759 5756 5754 5751 5749 5747 5744 5742 5739 5736 5734 5732 5729 5727 5725 5723 5721 5719 5718 5716 5714 5712 5711 5710 5709 5709 5709 5708 5708 5707 5707 5707 5707 5707 5707 5707 5707 5707 5707 5707 5708 5708 5709 5709 5709 5709 5709